STARLINK-36135, 66986

Orbit data source: Space-Track

STARLINK-36135, 66986 is a payload satellite owned by SpaceX/Seattle (US) in LEO that was launched on Mon, 08 Dec 2025 UTC via an FALCON 9 launch vehicle from the Air Force Eastern Test Range (AFETR). Payload-class satellites include a variety of spacecraft equipped with specific instruments for various scientific and technological missions. These include communications satellites like Starlink; space stations such as the ISS; scientific satellites like the Hubble; Earth observation satellites from companies like Planet Labs, Umbra, and HawkEye 360; GPS; miniature CubeSats for education and research; and military/defense satellites.

Loading next visibility...
Identifier
66986, 2025-288AD
Orbit
LEO
Country
Flag of USUS
Related business
Manufacturer
SpaceX/Seattle
Mission
Operational Commercial Communications
Bus & Motor
STARLINK V2MO, Unknown motor
Mass
575 kg wet, ~530 kg dry
Launch date (UTC)
2025-12-08 (7 months ago)
Launch vehicle
FALCON 9
Launch site
Air Force Eastern Test Range (AFETR)
Object type
Payload
Rocket body
Debris
Shape & HBR
Box + 2 Pan, 17.7 m
Radar Cross Section
36.964 m², Large (>1 m²)

Expand to show TLE details & history
Last TLE update: 1 day ago

TLE from 1 day ago
0 STARLINK-36135
1 66986U 25288AD  26176.94816688 -.00003796  00000-0 -12853-3 0  9991
2 66986  43.0001 132.1023 0000678 233.8333 126.2456 15.27568287 31846
Epoch: 2026-06-25T22:45Z
TLE epoch observation values (Epoch: 2026-06-25T22:45:21.618Z)
Latitude
-0.00001°
Longitude
-123.3215°
Altitude
483.135 km
Speed
7.625 km/s
True Right ascension
08h 48m 24s
True Declination
0° 00' 00"
Sunlit
Object was in daylight at epoch
Visualization orbit readout
Latitude
Unknown
Longitude
Unknown
Altitude
Unknown
Speed
Unknown
Apparent Right ascension
Unknown
Apparent Declination
Unknown
Sunlit
N/A
Visualization observer readout
Local Sidereal Time
10:40:18
Azimuth
Unknown
Elevation
Unknown
Doppler factor
Unknown
Orbital elements
Apogee altitude
485.495 km
Perigee altitude
484.564 km
Semi-major axis
6,863.166 km
Eccentricity
0.00007
Inclination
43.0001°
RAAN
132.1023°
Arg. of periapsis
233.8333°
True anomaly
126.25187°
Mean anomaly
126.2456°
Eccentric anomaly
126.24873°
Mean motion
3.8173 °/min
Orbital period
94.31 mins
BSTAR
-0.00012853
Loading maneuver chart data...
Computing Atmospheric mass density...
Loading historical data...
Loading historical data...
Loading historical data...
Loading historical data...
Loading historical data...
Loading historical data...
Loading historical data...

Documentation

Showing up to 5 results
|